Weather History for Audubon, IA

Change the Weather History Date:

Monday, February 10, 2014

  Actual Average Record
Temperature  
Mean Temperature -3 °F -  
Max Temperature 10 °F 33 °F 69 °F (1999)
Min Temperature -16 °F 13 °F -20 °F (1986)
Degree Days  
Heating Degree Days 68    
Moisture  
Dew Point -12 °F    
Average Humidity 64    
Maximum Humidity 77    
Minimum Humidity 48    
Precipitation  
Precipitation 0.00 in - - ()
Sea Level Pressure  
Sea Level Pressure 30.44 in    
Wind  
Wind Speed 2 mph (NNW)    
Max Wind Speed 7 mph    
Max Gust Speed -    
Visibility 10 miles    
Events      
Averages and records for this station are not official NWS values.
T = Trace of Precipitation, MM = Missing Value Source: NWS Daily Summary

Daily Weather History Graph

Daily Weather History Graph

Search for Another Location

Airport:

Trip Planner

Search our weather history database for the weather conditions in past years. The results will help you decide how hot, cold, wet, or windy it might be!

Date:

Astronomy

Feb. 10, 2014 Rise Set
Actual Time 7:21 AM CST 5:46 PM CST
Civil Twilight 6:52 AM CST 6:15 PM CST
Nautical Twilight 6:20 AM CST 6:48 PM CST
Astronomical Twilight 5:47 AM CST 7:20 PM CST
Moon 2:15 PM CST (2/10) 4:16 AM CST (2/10)
Length of Visible Light 11h 22m
Length of Day
10h 25m
Waxing Gibbous, 85% of the Moon is Illuminated
Feb 10
Waxing Gibbous
Feb 14
Full
Feb 22
Last Quarter
Mar 1
New
Mar 8
First Quarter

Hourly Weather History & Observations

Time (CST) Temp. Windchill Dew Point Humidity Pressure Visibility Wind Dir Wind Speed Gust Speed Precip Events Conditions
12:15 AM -5.8 °F - -11.2 °F 77% 30.39 in 10.0 mi Calm Calm - N/A   Clear
12:35 AM -2.2 °F -10.4 °F -9.4 °F 71% 30.40 in 10.0 mi NW 3.5 mph - N/A   Clear
12:55 AM -4.0 °F -14.6 °F -11.2 °F 71% 30.40 in 10.0 mi NNW 4.6 mph - N/A   Clear
1:15 AM -4.0 °F -14.6 °F -11.2 °F 71% 30.40 in 10.0 mi NW 4.6 mph - N/A   Clear
1:35 AM -5.8 °F -18.4 °F -11.2 °F 77% 30.40 in 10.0 mi NNW 5.8 mph - N/A   Clear
1:55 AM -5.8 °F -16.7 °F -11.2 °F 77% 30.40 in 10.0 mi NW 4.6 mph - N/A   Clear
2:15 AM -5.8 °F - -11.2 °F 77% 30.42 in 10.0 mi Calm Calm - N/A   Clear
2:35 AM -9.4 °F - -16.6 °F 71% 30.41 in 10.0 mi Calm Calm - N/A   Clear
2:55 AM -9.4 °F - -16.6 °F 71% 30.42 in 10.0 mi Calm Calm - N/A   Clear
3:15 AM -11.2 °F - -18.4 °F 70% 30.42 in 10.0 mi Calm Calm - N/A   Clear
3:35 AM -9.4 °F - -18.4 °F 65% 30.43 in 10.0 mi Calm Calm - N/A   Clear
3:55 AM -11.2 °F - -18.4 °F 70% 30.44 in 7.0 mi Calm Calm - N/A   Clear
4:15 AM -11.2 °F -20.6 °F -18.4 °F 70% 30.45 in 10.0 mi SW 3.5 mph - N/A   Clear
4:35 AM -11.2 °F - -18.4 °F 70% 30.45 in 10.0 mi Calm Calm - N/A   Clear
4:55 AM -11.2 °F - -18.4 °F 70% 30.45 in 10.0 mi Calm Calm - N/A   Clear
5:15 AM -11.2 °F - -18.4 °F 70% 30.44 in 10.0 mi Calm Calm - N/A   Clear
5:35 AM -14.8 °F - -22.0 °F 70% 30.44 in 10.0 mi Calm Calm - N/A   Clear
5:55 AM -14.8 °F - -22.0 °F 70% 30.44 in 10.0 mi Calm Calm - N/A   Clear
6:15 AM -16.6 °F - -23.8 °F 70% 30.45 in 10.0 mi Calm Calm - N/A   Clear
6:35 AM -16.6 °F - -23.8 °F 70% 30.45 in 10.0 mi Calm Calm - N/A   Clear
6:55 AM -16.6 °F - -23.8 °F 70% 30.44 in 10.0 mi Calm Calm - N/A   Clear
7:15 AM -14.8 °F - -23.8 °F 64% 30.45 in 10.0 mi Calm Calm - N/A   Clear
7:35 AM -16.6 °F - -23.8 °F 70% 30.47 in 10.0 mi Calm Calm - N/A   Clear
7:55 AM -14.8 °F - -23.8 °F 64% 30.47 in 10.0 mi Calm Calm - N/A   Clear
8:15 AM -11.2 °F - -18.4 °F 70% 30.47 in 5.0 mi Calm Calm - N/A   Haze
8:35 AM -9.4 °F - -16.6 °F 71% 30.47 in 7.0 mi Calm Calm - N/A   Clear
8:55 AM -5.8 °F - -13.0 °F 71% 30.47 in 10.0 mi Calm Calm - N/A   Clear
9:15 AM -2.2 °F -12.5 °F -9.4 °F 71% 30.47 in 10.0 mi NNW 4.6 mph - N/A   Clear
9:35 AM -0.4 °F -8.3 °F -7.6 °F 72% 30.48 in 10.0 mi NW 3.5 mph - N/A   Clear
9:55 AM 1.4 °F -9.9 °F -5.8 °F 72% 30.48 in 10.0 mi NNW 5.8 mph - N/A   Clear
10:15 AM 3.2 °F -6.2 °F -5.8 °F 66% 30.48 in 10.0 mi NNW 4.6 mph - N/A   Clear
10:35 AM 3.2 °F -6.2 °F -5.8 °F 66% 30.48 in 10.0 mi NNW 4.6 mph - N/A   Clear
10:55 AM 5.0 °F -2.1 °F -5.8 °F 61% 30.48 in 10.0 mi North 3.5 mph - N/A   Clear
11:15 AM 6.8 °F -0.1 °F -7.6 °F 52% 30.48 in 10.0 mi NNW 3.5 mph - N/A   Clear
11:35 AM 6.8 °F - -7.6 °F 52% 30.48 in 10.0 mi Calm Calm - N/A   Clear
11:55 AM 6.8 °F -0.1 °F -5.8 °F 56% 30.47 in 10.0 mi North 3.5 mph - N/A   Clear
12:15 PM 6.8 °F -0.1 °F -5.8 °F 56% 30.46 in 10.0 mi West 3.5 mph - N/A   Clear
12:35 PM 8.6 °F 0.1 °F -5.8 °F 52% 30.45 in 10.0 mi West 4.6 mph - N/A   Clear
12:55 PM 8.6 °F - -7.6 °F 48% 30.44 in 10.0 mi Calm Calm - N/A   Clear
1:15 PM 10.4 °F 4.0 °F -5.8 °F 48% 30.43 in 10.0 mi NE 3.5 mph - N/A   Clear
1:35 PM 10.4 °F 4.0 °F -5.8 °F 48% 30.43 in 10.0 mi NW 3.5 mph - N/A   Clear
1:55 PM 10.4 °F 2.2 °F -5.8 °F 48% 30.43 in 10.0 mi NNW 4.6 mph - N/A   Clear
2:15 PM 10.4 °F 2.2 °F -5.8 °F 48% 30.42 in 10.0 mi North 4.6 mph - N/A   Clear
2:35 PM 10.4 °F 4.0 °F -4.0 °F 52% 30.41 in 10.0 mi North 3.5 mph - N/A   Clear
2:55 PM 10.4 °F -0.4 °F -4.0 °F 52% 30.41 in 10.0 mi North 6.9 mph - N/A   Clear
3:15 PM 10.4 °F -0.4 °F -4.0 °F 52% 30.42 in 10.0 mi North 6.9 mph - N/A   Clear
3:35 PM 10.4 °F 4.0 °F -4.0 °F 52% 30.43 in 10.0 mi North 3.5 mph - N/A   Clear
3:55 PM 10.4 °F 0.8 °F -5.8 °F 48% 30.42 in 10.0 mi North 5.8 mph - N/A   Clear
4:15 PM 10.4 °F 4.0 °F -5.8 °F 48% 30.43 in 10.0 mi NNE 3.5 mph - N/A   Clear
4:35 PM 10.4 °F 4.0 °F -5.8 °F 48% 30.43 in 10.0 mi North 3.5 mph - N/A   Clear
4:55 PM 10.4 °F 2.2 °F -5.8 °F 48% 30.42 in 10.0 mi NNE 4.6 mph - N/A   Clear
5:15 PM 8.6 °F 2.0 °F -5.8 °F 52% 30.43 in 10.0 mi NNE 3.5 mph - N/A   Clear
5:35 PM 6.8 °F -0.1 °F -5.8 °F 56% 30.43 in 10.0 mi NNE 3.5 mph - N/A   Clear
5:55 PM 3.2 °F - -7.6 °F 61% 30.43 in 10.0 mi Calm Calm - N/A   Clear
6:15 PM 3.2 °F - -7.6 °F 61% 30.44 in 10.0 mi Calm Calm - N/A   Clear
6:35 PM 1.4 °F - -9.4 °F 61% 30.45 in 10.0 mi Calm Calm - N/A   Clear
6:55 PM -2.2 °F - -11.2 °F 66% 30.45 in 10.0 mi Calm Calm - N/A   Clear
7:15 PM -2.2 °F - -11.2 °F 66% 30.45 in 10.0 mi Calm Calm - N/A   Clear
7:35 PM -4.0 °F - -11.2 °F 71% 30.46 in 10.0 mi Calm Calm - N/A   Clear
7:55 PM -5.8 °F - -14.8 °F 65% 30.45 in 10.0 mi Calm Calm - N/A   Clear
8:15 PM -5.8 °F - -13.0 °F 71% 30.45 in 10.0 mi Calm Calm - N/A   Clear
8:35 PM -7.6 °F - -14.8 °F 71% 30.45 in 10.0 mi Calm Calm - N/A   Clear
8:55 PM -7.6 °F - -16.6 °F 65% 30.45 in 10.0 mi Calm Calm - N/A   Clear
9:15 PM -5.8 °F - -14.8 °F 65% 30.45 in 10.0 mi Calm Calm - N/A   Clear
9:35 PM -5.8 °F - -11.2 °F 77% 30.45 in 10.0 mi Calm Calm - N/A   Clear
9:55 PM -2.2 °F - -9.4 °F 71% 30.45 in 10.0 mi Calm Calm - N/A   Clear
10:15 PM -2.2 °F - -9.4 °F 71% 30.45 in 10.0 mi Calm Calm - N/A   Scattered Clouds
10:35 PM -0.4 °F - -9.4 °F 66% 30.46 in 10.0 mi Calm Calm - N/A   Overcast
10:55 PM -0.4 °F - -7.6 °F 72% 30.46 in 10.0 mi Calm Calm - N/A   Overcast
11:15 PM -0.4 °F - -7.6 °F 72% 30.46 in 10.0 mi Calm Calm - N/A   Overcast
11:35 PM -0.4 °F - -7.6 °F 72% 30.45 in 10.0 mi Calm Calm - N/A   Overcast
11:55 PM 1.4 °F - -5.8 °F 72% 30.44 in 10.0 mi Calm Calm - N/A   Overcast